Regional Weather Roundup
Issued by NWS

Home | Current Version | Previous Version | Graphics & Text | Print | Product List | Glossary On
Versions: 1 2 3 4 5 6 7 8 9 10 11 12 13 14 15 16 17 18 19 20 21 22 23 24 25 26 27 28 29 30 31 32 33 34 35 36 37 38 39 40 41 42 43 44 45 46 47 48 49 50
000
ASUS44 KMEG 191000
RWRTN
TENNESSEE HOURLY STATE WEATHER ROUNDUP
NATIONAL WEATHER SERVICE MEMPHIS TN
500 AM CDT SAT AUG 19 2017

TNZ002-004-019-021-049-052-054-088>092-191100-
WEST TENNESSEE

CITY           SKY/WX    TMP DP  RH WIND       PRES   REMARKS
MEMPHIS INTL   CLEAR     76  71  85 S3        29.95F
NWS MEMPHIS      N/A     72 N/A N/A MISG        N/A
JACKSON        CLEAR     68  65  90 S5        29.95F
DYERSBURG      CLEAR     70  66  87 CALM      29.96R
$$

TNZ008-025-027-028-033-062-065-066-191100-
NORTH MIDDLE TENNESSEE

CITY           SKY/WX    TMP DP  RH WIND       PRES   REMARKS
NASHVILLE      MOCLDY    68  66  93 S5        29.98R
CLARKSVILLE    CLOUDY    68  66  93 CALM      29.96R
SMYRNA         CLEAR     66  65  96 CALM      29.99R
CROSSVILLE     CLEAR     60  59  96 CALM      30.05F
$$

TNZ061-075-076-078-094-096-097-191100-
SOUTH MIDDLE TENNESSEE

CITY           SKY/WX    TMP DP  RH WIND       PRES   REMARKS
TULLAHOMA      CLOUDY    64  63  94 SE3       30.02F VSB 1
WINCHESTER     CLEAR     64  64 100 CALM      30.02S
$$

TNZ017-018-042-046-047-191100-
NORTHEAST TENNESSEE

CITY           SKY/WX    TMP DP  RH WIND       PRES   REMARKS
TRI CITIES     FOG       64  64 100 CALM      30.04R VSB 1/4
$$

TNZ012-013-036-069-073-074-191100-
CENTRAL EAST TENNESSEE

CITY           SKY/WX    TMP DP  RH WIND       PRES   REMARKS
KNOXVILLE      PTCLDY    65  64  97 E3        30.01R
OAK RIDGE      CLEAR     66  63  90 CALM      30.03S
GATLINBURG     CLEAR     63  63 100 CALM      30.02R
$$

TNZ083-085-099-191100-
SOUTHEAST TENNESSEE

CITY           SKY/WX    TMP DP  RH WIND       PRES   REMARKS
CHATTANOOGA    PTCLDY    69  67  93 CALM      30.01R
$$

SKY/WX REPORTED AS FAIR MEANS FEW OR NO CLOUDS BELOW
12 THOUSAND FEET.





USA.gov is the U.S. government's official web portal to all federal, state and local government web resources and services.